Hourly Weather Roundup
Issued by NWS Central Illinois

Home | Current Version | Previous Version | Text Only | Print | Product List | Glossary On
Versions: 1 2 3 4 5 6 7 8 9 10 11 12 13 14 15 16 17 18 19 20 21 22 23 24 25 26 27 28 29 30 31 32 33 34 35 36 37 38 39 40 41 42 43 44 45 46 47 48 49 50
000
NZUS43 KILX 021910
HWRILX

AREA WEATHER ROUNDUP
NATIONAL WEATHER SERVICE, LINCOLN IL
200 PM CDT SUN AUG 02 2015


CITY           SKY/WX    TMP DP  RH WIND       PRES   REMARKS
BLOOMINGTON    MOSUNNY   86  65  49 SW14G23   29.88F HX  88
CHAMPAIGN      PTSUNNY   83  71  67 SW8       29.91S HX  87
DANVILLE       MOSUNNY   86  73  63 SW14G20   29.87S HX  93
DECATUR        CLOUDY    84  71  65 S3        29.90F HX  89
EFFINGHAM      MOSUNNY   91  62  38 S8        29.93F HX  91
FLORA          SUNNY     90  70  52 SW9       29.92F HX  95
GALESBURG      SUNNY     88  74  62 SW13G20   29.83F HX  96
JACKSONVILLE   SUNNY     91  72  54 SW12G20   29.87F HX  98
LACON          SUNNY     88  71  57 SW15      29.81F HX  94
LAWRENCEVILLE  SUNNY     89  68  49 S10       29.93F HX  93
LITCHFIELD     MOSUNNY   89  70  53 SW7       29.90F HX  93
$$


CITY           SKY/WX    TMP DP  RH WIND       PRES   REMARKS
LINCOLN        MOSUNNY   88  71  56 S13       29.86F HX  93
MACOMB         SUNNY     88  71  57 SW14G21   29.87F HX  94
MATTOON        MOSUNNY   86  69  56 SW7       29.91F HX  90
MT CARMEL AP   SUNNY     88  68  51 SW8       29.93F HX  91
OLNEY-NOBLE AP MOSUNNY   88  73  62 S8        29.93F HX  96
PARIS          SUNNY     87  71  58 SW10G18   29.91F HX  92
PEORIA         SUNNY     92  72  51 SW14G23   29.84F HX  99
PONTIAC        SUNNY     89  73  59 SW17G23   29.84F HX  97
RANTOUL        MOSUNNY   90  72  54 SW17      29.88F HX  97
ROBINSON       SUNNY     88  70  56 SW9       29.93F HX  92
SPRINGFIELD    MOSUNNY   90  73  57 SW9G18    29.87F HX  98
TAYLORVILLE    MOSUNNY   88  70  55 SW10      29.89F HX  92
$$

...REGIONAL REPORTS...


CITY           SKY/WX    TMP DP  RH WIND       PRES   REMARKS
CHICAGO O`HARE MOSUNNY   90  66  45 SW20G33   29.75F HX  92
KANKAKEE       SUNNY     90  72  54 SW21      29.83F HX  97
MOLINE         MOSUNNY   90  71  53 SW17      29.77F HX  96
MOUNT STERLING NOT AVBL
MOUNT VERNON   MOSUNNY   91  72  52 SW8       29.93F HX  98
PITTSFIELD     SUNNY     90  69  49 SW13G18   29.89S HX  94
QUINCY         SUNNY     90  71  53 SW13      29.87F HX  96
ROCKFORD       MOSUNNY   89  68  49 SW21G29   29.75F HX  93
$$


CITY           SKY/WX    TMP DP  RH WIND       PRES   REMARKS
BURLINGTON     SUNNY     89  75  63 SW10      29.82  HX  99
CEDAR RAPIDS   SUNNY     87  76  69 SW18      29.75F HX  97
DES MOINES     MOSUNNY   93  72  50 W21G28    29.77F HX 101
KIRKSVILLE     MOSUNNY   90  73  57 SW9       29.87F HX  98
OTTUMWA        MOSUNNY   87  75  67 SW18G25   29.79F HX  96
ST LOUIS       MOSUNNY   94  68  42 W12       29.90F HX  98
$$


CITY           SKY/WX    TMP DP  RH WIND       PRES   REMARKS
TERRE HAUTE    SUNNY     89  69  51 S9        29.92F HX  93
EVANSVILLE     SUNNY     88  62  41 SW8       29.95F HX  88
INDIANAPOLIS   MOSUNNY   87  66  49 SW14      29.92F HX  89
LAFAYETTE      SUNNY     88  71  57 SW14G20   29.87F HX  94
MADISON        MOSUNNY   88  68  51 SW12G21   29.66F HX  91
MILWAUKEE      MOSUNNY   92  66  42 SW23G36   29.67F HX  94
$$





USA.gov is the U.S. government's official web portal to all federal, state and local government web resources and services.